Tracking 35237 objects as of 6-Sep-2026
HD Live streaming from Space Station
objects crossing your sky now

CZ-11 R/B


CZ-11 R/B is no longer on orbit


NORAD ID: 46463
Int'l Code: 2020-065K
Launch date: September 15, 2020
Source: People's Republic of China (PRC)
Launch site: Yellow Sea Launch Area, China (YSLA)
Decay date: 2021-02-21

Note: This is a ROCKET BODY
Your satellite tracking list
Your tracking list is empty




NASA's NSSDC Master Catalog

Two Line Element Set (TLE):
1 46463U 20065K   21052.66008076  .37421168  28002-5  23357-3 0  9991
2 46463  97.4319 126.1593 0008639 113.9613 247.9205 16.54175138 25125
Source of the keplerian elements: AFSPC